CYLA

Aupaluk Airport

ICAO Code CYLA
IATA Code YPJ
Name Aupaluk Airport
Location Aupaluk, Quebec, CA
Elevation 121 Feet / 36.9 Meters
Latitude 59.29666667
Longitude -69.59972222
METAR CYLA 252100Z 27010KT 15SM FEW014 FEW130 02/M01 A3000 RMK CF1AC2 CF TR LAST STFD OBS/ NXT 261200Z SLP164
Extra information Display Charts and CFS
Display NOTAMS
Runway Length Width Surface Elevation
04 3521 ft 100 ft GRAVEL 74 ft
22 3521 ft 100 ft GRAVEL 121 ft